Location: Maddington
(51.2000°N, 1.9167°W)
Time: 23:51:47
(UTC+00:00)

ATLAS 3B R/B - Visible Passes

Search period start: 23 January 2021 00:00
Search period end: 02 February 2021 00:00
Orbit: 1013 x 1182 km, 63.8° (Epoch: 08 January)

Date Brightness Start Highest point End Pass type
(mag) Time Alt. Az. Time Alt. Az. Time Alt. Az.
23 Jan 5.3 07:12:37 10° SSE 07:17:47 25° ESE 07:23:02 10° ENE visible
23 Jan 5.8 18:20:50 10° WNW 18:24:37 15° WSW 18:28:27 10° SW visible
24 Jan 5.7 06:27:27 10° SE 06:31:03 15° ESE 06:34:41 10° ENE visible
24 Jan 5.4 17:32:27 10° WNW 17:37:52 25° WSW 17:43:26 10° SSW visible
26 Jan 4.8 06:41:01 10° S 06:46:30 29° ESE 06:52:05 10° ENE visible
26 Jan 6.1 17:50:24 10° W 17:53:17 13° WSW 17:56:12 10° SW visible
27 Jan 5.4 05:55:30 10° SSE 05:59:44 18° ESE 06:04:00 10° ENE visible
28 Jan 5.8 05:12:22 10° ESE 05:13:07 10° ESE 05:13:51 10° E visible
28 Jan 3.7 06:55:55 10° SSW 07:02:12 51° ESE 07:08:39 10° NE visible
29 Jan 4.4 06:09:30 10° S 06:15:14 33° ESE 06:21:06 10° NE visible
30 Jan 5.0 05:23:42 10° SSE 05:28:25 21° ESE 05:33:11 10° ENE visible
30 Jan 2.8 07:11:35 10° SW 07:18:10 84° SE 07:24:57 10° NE visible
31 Jan 5.4 04:39:11 10° SE 04:41:45 12° ESE 04:44:20 10° E visible
31 Jan 3.3 06:24:36 10° SSW 06:31:00 58° SE 06:37:34 10° NE visible
01 Feb 4.0 05:38:02 10° S 05:43:59 38° ESE 05:50:05 10° NE visible
